Tracking 19489 objects as of 23-Jan-2019
HD Live streaming from Space Station
objects crossing your sky now

SL-16 R/B

Track SL-16 R/B now!
10-day predictions
SL-16 R/B is classified as:


NORAD ID: 24298
Int'l Code: 1996-051B
Perigee: 848.6 km
Apogee: 868.0 km
Inclination: 70.8 °
Period: 102.0 minutes
Semi major axis: 7229 km
RCS: 8.785 m2 (large)
Launch date: September 4, 1996
Source: Commonwealth of Independent States (former USSR) (CIS)
Launch site: TYURATAM MISSILE AND SPACE COMPLEX (TTMTR)

Note: This is a ROCKET BODY
aabbcc
Your satellite tracking list
Your tracking list is empty




NASA's NSSDC Master Catalog

Two Line Element Set (TLE):
1 24298U 96051B   19022.83951337 -.00000052  00000-0 -16361-5 0  9990
2 24298  70.8254 269.4683 0013413  24.8388 335.3375 14.12391782154384
Source of the keplerian elements: AFSPC